Stations météo

Publicité
Chartres, France (7143): Température de l'air & dewpoint: 08.11.2018 10:00:00 - 14.11.2018 10:00:00 (CET)Chartres, France (7143): Température de l'air 5cm: 08.11.2018 10:00:00 - 14.11.2018 10:00:00 (CET)Chartres, France (7143): Température de l'air -20cm & Température de l'air -100cm: 08.11.2018 10:00:00 - 14.11.2018 10:00:00 (CET)Chartres, France (7143): Vitesse du vent & gusts: 08.11.2018 10:00:00 - 14.11.2018 10:00:00 (CET)Chartres, France (7143): Direction du vent: 08.11.2018 10:00:00 - 14.11.2018 10:00:00 (CET)Chartres, France (7143): reduced air pressure: 08.11.2018 10:00:00 - 14.11.2018 10:00:00 (CET)Chartres, France (7143): visibility: 08.11.2018 10:00:00 - 14.11.2018 10:00:00 (CET)Chartres, France (7143): Ensoleillement: 08.11.2018 10:00:00 - 14.11.2018 10:00:00 (CET)Chartres, France (7143): Quantités de précipitations: 08.11.2018 10:00:00 - 14.11.2018 10:00:00 (CET)
Date & Time tt [°C] td [°C] tt 5cm [°C] tt -20cm [°C] tt -100cm [°C] ff [km/h] ff [knt] fx [km/h] fx [knt] dd ppp [hPa] vv [km] sd [min] rr [mm]
14.11.2018 10:00:00 - - - - - - - - - - - - - -
14.11.2018 09:00:00 4,9 4,9 0,6 10,8 13,2 4 2 9 5 E 1026,5 3,8 - 0,0
14.11.2018 08:00:00 4,0 3,9 0,5 10,9 13,2 4 2 7 4 E 1026,4 2,2 - 0,0
14.11.2018 07:00:00 3,7 3,4 0,6 11,0 13,2 4 2 8 4 SE 1026,6 1,8 - 0,0
14.11.2018 06:00:00 4,7 4,6 2,0 11,1 13,2 4 2 6 4 ESE 1027,2 2,2 - 0,0
14.11.2018 05:00:00 4,3 4,2 1,8 11,1 13,2 4 2 6 4 SE 1027,6 0,7 - 0,0
14.11.2018 04:00:00 4,8 4,7 1,5 11,2 13,2 3 2 8 5 SE 1028,2 3,7 - 0,0
14.11.2018 03:00:00 3,8 3,5 1,5 11,3 13,2 0 0 5 3 N 1029,0 4,7 - 0,0
14.11.2018 02:00:00 4,4 4,1 1,4 11,4 13,2 3 2 5 3 NNE 1029,2 7 - 0,0
14.11.2018 01:00:00 4,5 4,1 1,0 11,5 13,2 0 0 5 3 N 1029,5 8 - 0,0
14.11.2018 00:00:00 4,8 4,2 1,5 11,6 13,2 3 2 6 4 S 1029,6 8 - 0,2
13.11.2018 23:00:00 6,3 5,6 3,3 11,6 13,2 5 3 11 6 SSE 1029,6 13 - 0,0
13.11.2018 22:00:00 7,2 6,6 4,1 11,7 13,2 6 3 11 6 S 1029,6 14 - 0,0
13.11.2018 21:00:00 7,8 7,2 4,2 11,8 13,2 6 3 9 5 S 1029,7 17 - 0,0
13.11.2018 20:00:00 7,7 6,9 4,2 11,8 13,2 6 3 8 4 S 1029,8 18 - 0,0
13.11.2018 19:00:00 7,8 6,7 4,2 11,8 13,2 5 3 8 4 S 1029,4 20 - 0,0
13.11.2018 18:00:00 9,3 6,9 6,0 11,8 13,2 5 3 9 5 S 1029,3 20 - 0,0
13.11.2018 17:00:00 12,8 7,7 10,6 11,8 13,2 6 3 19 10 SSW 1028,8 20 - 0,0
13.11.2018 16:00:00 14,2 7,3 13,2 11,7 13,2 9 5 29 15 WSW 1028,3 20 0 0,0
13.11.2018 15:00:00 14,4 7,4 17,2 11,6 13,2 13 7 27 15 WSW 1027,9 20 0 0,0
13.11.2018 14:00:00 14,2 7,9 14,1 11,6 13,2 16 9 30 16 WSW 1027,7 20 - 0,0
13.11.2018 13:00:00 13,9 8,3 16,2 11,5 13,2 12 7 29 15 SW 1027,7 20 - 0,0
13.11.2018 12:00:00 13,3 9,5 13,3 11,5 13,2 10 5 22 12 W 1028,0 20 - 0,0
13.11.2018 11:00:00 12,2 9,4 10,9 11,5 13,2 13 7 29 15 WSW 1027,8 20 - 0,0
13.11.2018 10:00:00 11,2 9,3 9,5 11,6 13,2 12 7 23 13 SW 1026,9 20 - 0,0
13.11.2018 09:00:00 9,9 9,3 8,5 11,6 13,2 12 7 22 12 SW 1026,0 17 - 0,0
13.11.2018 08:00:00 9,4 9,1 8,0 11,7 13,2 10 5 19 11 SW 1025,3 13 - 0,0
13.11.2018 07:00:00 9,4 8,9 8,5 11,6 13,2 12 7 29 15 SW 1024,4 14 - 0,2
13.11.2018 06:00:00 9,5 9,0 8,7 11,7 13,2 14 8 28 15 SSW 1023,3 15 - 0,0
13.11.2018 05:00:00 9,7 9,2 9,1 11,7 13,2 11 6 23 12 SSW 1022,8 16 - 0,0
13.11.2018 04:00:00 9,9 9,4 9,1 11,7 13,2 10 5 21 11 SSW 1022,2 13 - 0,0
13.11.2018 03:00:00 10,1 9,6 9,7 11,7 13,2 10 6 21 11 SSW 1021,7 15 - 0,0
13.11.2018 02:00:00 10,0 9,5 9,2 11,8 13,3 12 6 25 13 SSW 1021,3 14 - 0,0
13.11.2018 01:00:00 9,6 9,3 8,9 11,8 13,2 8 4 19 11 S 1020,5 8 - 0,0
13.11.2018 00:00:00 9,7 9,4 8,9 11,8 13,2 8 5 16 9 SSW 1020,3 9 - 0,0
12.11.2018 23:00:00 9,6 9,3 8,8 11,8 13,2 6 4 17 9 S 1019,8 6 - 0,0
12.11.2018 22:00:00 9,6 9,3 8,8 11,9 13,2 8 4 14 8 S 1019,4 10 - 0,0
12.11.2018 21:00:00 9,6 9,3 8,7 11,9 13,2 4 2 10 6 S 1018,9 6 - 0,0
12.11.2018 20:00:00 9,8 9,3 8,9 11,9 13,2 5 3 12 6 S 1018,7 12 0 0,0
12.11.2018 19:00:00 10,1 9,3 8,8 11,9 13,2 7 4 14 7 SSW 1018,3 20 0 0,0
12.11.2018 18:00:00 10,2 9,1 8,9 11,9 13,2 5 3 9 5 S 1018,0 20 0 0,0
12.11.2018 17:00:00 10,9 9,0 10,0 11,8 13,2 5 3 17 9 SW 1017,1 20 10 0,0
12.11.2018 16:00:00 11,8 10,0 12,3 11,7 13,2 9 5 16 9 SSW 1016,7 20 21 0,0
12.11.2018 15:00:00 11,6 10,0 11,8 11,7 13,2 9 5 21 11 SSW 1016,4 20 3 0,0
12.11.2018 14:00:00 11,2 9,6 12,0 11,6 13,2 8 4 18 10 S 1016,1 20 0 0,0
12.11.2018 13:00:00 11,5 10,2 12,6 11,6 13,3 8 4 15 8 SW 1015,7 20 5 0,0
12.11.2018 12:00:00 10,5 9,4 10,3 11,6 13,2 4 2 9 5 S 1015,5 20 0 0,0
12.11.2018 11:00:00 9,5 8,9 9,6 11,6 13,2 0 0 8 4 N 1014,7 20 0 0,2
12.11.2018 10:00:00 9,3 9,0 9,0 11,6 13,2 4 2 10 5 NNW 1014,2 10 0 2,4
12.11.2018 09:00:00 9,1 8,8 8,9 11,6 13,2 5 3 10 5 NNW 1013,2 14 0 0,6
12.11.2018 08:00:00 9,3 9,0 9,1 11,6 13,2 6 3 11 6 N 1012,5 13 0 0,6
12.11.2018 07:00:00 9,9 9,7 9,5 11,6 13,2 0 0 5 3 N 1011,4 4,6 0 1,6
12.11.2018 06:00:00 9,8 9,7 9,6 11,6 13,2 2 1 8 5 SSW 1011,0 4,1 0 1,6
12.11.2018 05:00:00 9,9 9,7 9,6 11,7 13,2 5 3 11 6 SSE 1010,5 4,3 0 2,2
12.11.2018 04:00:00 10,1 9,9 9,8 11,7 13,2 4 2 9 5 S 1010,4 4,4 0 2,5
12.11.2018 03:00:00 10,2 9,9 9,8 11,7 13,2 5 3 15 8 S 1010,6 7 0 1,4
12.11.2018 02:00:00 10,6 10,3 10,2 11,7 13,2 6 4 12 7 S 1010,8 6 0 0,8
12.11.2018 01:00:00 10,7 10,4 10,3 11,7 13,2 6 3 14 8 S 1010,4 10 0 1,0
12.11.2018 00:00:00 10,8 10,5 10,2 11,7 13,2 8 4 14 8 S 1010,7 10 0 0,6
11.11.2018 23:00:00 10,8 10,5 10,4 11,7 13,2 6 3 14 8 S 1010,5 13 0 0,8
11.11.2018 22:00:00 10,9 10,6 10,4 11,7 13,2 9 5 18 10 S 1010,8 13 0 0,6
11.11.2018 21:00:00 10,8 10,3 10,4 11,7 13,2 9 5 19 10 S 1010,1 20 0 0,0
11.11.2018 20:00:00 10,8 10,3 10,4 11,7 13,3 9 5 23 13 S 1009,7 20 0 0,0
11.11.2018 19:00:00 11,0 10,4 10,2 11,7 13,3 11 6 22 12 SSW 1008,8 20 0 0,0
11.11.2018 18:00:00 11,2 10,3 10,5 11,7 13,3 10 5 31 17 SSW 1008,2 20 0 0,4
11.11.2018 17:00:00 11,5 10,6 10,9 11,6 13,2 11 6 27 15 SSW 1007,6 20 0 0,8
11.11.2018 16:00:00 11,7 10,8 11,0 11,6 13,2 15 8 34 19 SSW 1007,0 12 0 0,6
11.11.2018 15:00:00 11,8 10,9 11,1 11,6 13,3 18 10 41 22 S 1006,7 18 0 1,1
11.11.2018 14:00:00 11,5 10,9 11,0 11,6 13,2 18 10 44 24 S 1006,4 9 0 1,6
11.11.2018 13:00:00 11,2 10,4 10,5 11,6 13,3 15 8 31 17 S 1006,2 19 0 0,2
11.11.2018 12:00:00 11,4 10,6 10,9 11,5 13,2 15 8 34 18 SSW 1006,9 19 0 1,2
11.11.2018 11:00:00 11,4 10,6 10,6 11,5 13,2 13 7 42 23 SSW 1006,6 8 0 1,8
11.11.2018 10:00:00 11,3 10,4 10,4 11,6 13,3 16 8 35 19 SSW 1006,0 16 0 0,2
11.11.2018 09:00:00 10,8 10,2 9,9 11,6 13,3 15 8 37 20 S 1005,1 11 0 0,8
11.11.2018 08:00:00 10,6 9,7 9,8 11,5 13,2 18 10 40 21 SSW 1004,2 19 0 0,0
11.11.2018 07:00:00 11,0 9,7 9,9 11,6 13,3 19 10 34 19 SSW 1003,8 20 0 0,0
11.11.2018 06:00:00 10,5 9,7 9,7 11,6 13,2 15 8 38 20 S 1003,6 20 0 0,0
11.11.2018 05:00:00 10,7 9,3 9,8 11,6 13,2 17 9 42 23 SSW 1003,2 20 0 1,6
11.11.2018 04:00:00 10,5 9,7 9,4 11,6 13,3 16 9 37 20 SSW 1003,2 13 0 0,2
11.11.2018 03:00:00 10,2 9,3 9,4 11,6 13,2 16 8 40 22 S 1002,8 20 0 0,0
11.11.2018 02:00:00 10,9 10,1 10,3 11,6 13,3 14 7 38 20 S 1002,4 20 0 0,6
11.11.2018 01:00:00 11,1 10,3 10,5 11,7 13,3 18 10 37 20 SSW 1002,7 11 0 0,2
11.11.2018 00:00:00 11,1 10,0 10,6 11,6 13,3 20 11 50 27 SSW 1002,6 20 0 0,0
10.11.2018 23:00:00 11,2 10,3 10,7 11,6 13,3 18 10 38 20 SSW 1002,5 17 0 0,0
10.11.2018 22:00:00 11,2 10,3 10,3 11,6 13,3 16 8 34 18 SSW 1002,3 18 0 0,6
10.11.2018 21:00:00 11,4 10,5 10,6 11,7 13,3 14 8 38 21 SSW 1001,9 3,0 0 1,4
10.11.2018 20:00:00 11,5 10,4 10,8 11,6 13,3 16 9 37 20 SSW 1001,9 20 0 0,0
10.11.2018 19:00:00 11,5 10,4 11,2 11,6 13,3 16 9 31 17 S 1001,7 20 0 0,0
10.11.2018 18:00:00 11,5 10,6 10,8 11,6 13,3 15 8 33 18 S 1001,4 20 0 0,0
10.11.2018 17:00:00 11,9 10,6 11,3 11,5 13,3 18 10 38 21 SSW 1001,3 20 13 0,0
10.11.2018 16:00:00 12,2 11,1 12,4 11,4 13,3 12 6 26 14 SSW 1001,0 20 0 0,0
10.11.2018 15:00:00 13,5 11,0 13,3 11,4 13,3 15 8 34 19 SSW 1000,9 20 24 0,0
10.11.2018 14:00:00 12,6 11,5 11,3 11,3 13,3 17 9 32 17 SSW 1001,3 20 8 0,0
10.11.2018 13:00:00 11,0 10,4 9,9 11,3 13,3 8 4 24 13 SSW 1001,6 20 0 1,0
10.11.2018 12:00:00 10,1 9,5 9,7 11,3 13,3 11 6 27 14 WSW 1001,9 5 0 5,9
10.11.2018 11:00:00 11,0 10,7 10,4 11,2 13,3 18 10 32 18 SSW 1001,7 12 0 1,0
10.11.2018 10:00:00 10,7 10,2 10,3 11,2 13,3 15 8 35 19 S 1001,5 4,3 0 0,2
10.11.2018 09:00:00 10,6 10,1 10,3 11,3 13,3 16 9 40 22 S 1001,5 11 0 1,0
10.11.2018 08:00:00 10,7 9,9 10,3 11,2 13,3 17 9 34 19 S 1001,5 20 0 0,4
10.11.2018 07:00:00 10,8 10,0 10,3 11,2 13,3 18 10 45 25 SSW 1001,6 9 0 0,4
10.11.2018 06:00:00 10,8 9,7 10,1 11,2 13,3 21 11 47 26 SSW 1001,5 20 0 0,2
10.11.2018 05:00:00 10,7 9,8 10,1 11,2 13,3 23 12 54 29 SSW 1001,5 10 0 0,0
10.11.2018 04:00:00 10,5 10,0 10,0 11,2 13,3 23 13 49 26 SSW 1001,5 8 0 0,2
10.11.2018 03:00:00 10,5 9,9 9,8 11,2 13,3 23 12 47 26 SSW 1001,5 7 0 0,0
10.11.2018 02:00:00 10,3 9,5 9,6 11,1 13,3 24 13 48 26 S 1001,6 5 0 1,0
10.11.2018 01:00:00 10,2 9,3 9,6 11,2 13,3 19 10 42 23 S 1002,4 9 0 0,6
10.11.2018 00:00:00 10,7 8,8 9,9 11,1 13,3 18 10 42 23 S 1003,2 20 0 0,0
09.11.2018 23:00:00 10,8 8,6 10,4 11,2 13,4 19 10 43 23 S 1004,2 20 0 0,0
09.11.2018 22:00:00 11,1 8,3 10,4 11,1 13,3 18 10 40 22 S 1005,2 20 0 0,0
09.11.2018 21:00:00 11,0 8,7 10,2 11,2 13,3 17 9 42 23 S 1006,2 20 0 0,0
09.11.2018 20:00:00 10,8 8,4 10,2 11,2 13,3 14 8 32 18 S 1007,3 20 0 0,0
09.11.2018 19:00:00 10,9 8,5 9,9 11,2 13,4 13 7 29 15 S 1008,1 20 0 0,0
09.11.2018 18:00:00 10,9 9,0 9,8 11,1 13,3 10 5 20 11 S 1008,4 20 0 0,0
09.11.2018 17:00:00 11,6 9,0 10,8 11,0 13,3 9 5 23 12 S 1009,1 20 9 0,0
09.11.2018 16:00:00 13,0 8,9 13,6 11,0 13,3 14 8 28 15 SSW 1009,5 20 49 0,0
09.11.2018 15:00:00 13,7 8,7 16,3 10,8 13,3 15 8 27 14 SSW 1010,2 20 60 0,0
09.11.2018 14:00:00 12,9 9,2 13,6 10,7 13,3 14 7 23 13 SSW 1010,8 20 19 0,0
09.11.2018 13:00:00 11,8 8,6 13,2 10,7 13,3 11 6 22 12 SW 1011,5 20 22 0,0
09.11.2018 12:00:00 10,8 8,2 12,0 10,6 13,4 9 5 18 10 S 1011,9 20 12 0,0
09.11.2018 11:00:00 10,3 7,5 8,6 10,7 13,3 10 5 21 11 S 1012,2 20 37 0,0
09.11.2018 10:00:00 7,4 6,5 5,9 10,7 13,4 8 4 16 9 S 1012,6 19 0 0,0
09.11.2018 09:00:00 6,3 5,7 5,3 10,8 13,4 8 5 16 8 S 1012,7 18 0 0,2
09.11.2018 08:00:00 6,0 5,4 4,9 10,8 13,4 7 4 16 9 S 1012,7 15 0 0,0
09.11.2018 07:00:00 5,8 5,5 2,4 10,9 13,4 8 4 14 8 SSE 1012,3 14 0 0,0
09.11.2018 06:00:00 4,3 3,9 1,8 11,0 13,4 5 3 7 4 SSE 1012,5 9 0 0,0
09.11.2018 05:00:00 5,1 4,7 1,9 11,0 13,4 4 2 7 4 SE 1012,7 11 0 0,0
09.11.2018 04:00:00 5,7 5,1 3,8 11,1 13,4 3 1 10 5 ESE 1012,4 13 0 0,0
09.11.2018 03:00:00 6,9 6,0 6,0 11,1 13,4 6 3 12 7 SE 1012,1 20 0 0,0
09.11.2018 02:00:00 7,2 6,5 6,4 11,1 13,3 6 3 12 7 SE 1012,5 20 0 0,0
09.11.2018 01:00:00 7,3 6,2 6,1 11,2 13,4 4 2 9 5 E 1013,0 20 0 0,0
09.11.2018 00:00:00 7,8 6,6 7,4 11,3 13,4 6 4 14 8 ESE 1013,2 20 0 0,0
08.11.2018 23:00:00 8,1 6,7 7,6 11,3 13,4 9 5 18 10 ESE 1013,6 20 0 0,0
08.11.2018 22:00:00 8,1 6,7 7,5 11,3 13,4 9 5 15 8 ESE 1014,0 20 0 0,0
08.11.2018 21:00:00 8,3 6,6 7,6 11,3 13,4 8 4 18 10 ESE 1014,6 20 0 0,0
08.11.2018 20:00:00 8,9 6,5 8,5 11,4 13,4 11 6 21 12 ESE 1014,5 20 0 0,0
08.11.2018 19:00:00 9,4 7,0 9,0 11,3 13,4 12 7 23 13 ESE 1015,0 20 0 0,0
08.11.2018 18:00:00 9,8 6,9 9,2 11,3 13,4 14 7 24 13 ESE 1015,1 20 0 0,0
08.11.2018 17:00:00 10,3 7,4 9,8 11,3 13,4 10 5 19 10 ESE 1015,8 20 0 0,0
08.11.2018 16:00:00 10,6 8,4 11,0 11,2 13,4 11 6 24 13 E 1016,4 20 11 0,0
08.11.2018 15:00:00 11,4 7,9 12,5 11,1 13,4 9 5 20 11 ESE 1017,0 20 50 0,0
08.11.2018 14:00:00 9,0 7,6 10,1 11,0 13,4 10 5 19 11 SE 1018,0 20 13 0,0
08.11.2018 13:00:00 8,2 7,9 9,0 11,0 13,4 8 5 15 8 ESE 1019,1 19 8 0,0
08.11.2018 12:00:00 7,1 7,1 7,0 11,0 13,4 7 4 15 8 SE 1020,2 5 0 0,0
08.11.2018 11:00:00 5,6 5,6 5,9 10,9 13,4 10 5 17 9 SSE 1020,6 0,4 0 0,0
08.11.2018 10:00:00 5,0 5,0 5,2 11,0 13,4 6 3 15 8 SE 1020,9 0,3 0 0,0

tt = Température de l'air
td = dewpoint
tt 5cm = Température de l'air 5cm
tt -20cm = Température de l'air -20cm
tt -100cm = Température de l'air -100cm
ff = Vitesse du vent
fx = gusts
dd = Direction du vent
ppp = reduced air pressure
vv = visibility
sd = Ensoleillement
rr = Quantités de précipitations

stations d'obs. à proximité